パロマー彗星

C/2012 LP26 ( Palomar )

English version
Home page
Updated on March 5, 2020

---------------------------------------------------------------------

・ プロフィール

発見日 2012年6月10日
発見光度 20.8等
発見者 Palomar Transient Factory program

・ 写真集

・ 軌道要素

Epoch 2015 Aug. 6.0 TT = JDT 2457240.5
T 2015 Aug. 16.60744 TT                                 MPCW
q   6.5360534            (2000.0)            P               Q
z  +0.0001226      Peri.  145.15586     +0.51118159     +0.83866469
 +/-0.0000004      Node   153.98761     -0.85327529     +0.52142647
e   0.9991989      Incl.   25.37971     -0.10302749     -0.15734028
From 396 observations 2012 May 23-2018 Oct. 5, mean residual 0".5.

・ 光度変化

        m1 = 3.7 + 5 logΔ + 12.0 log r(t - 70)

---------------------------------------------------------------------

軌道要素はM.P.E.C. 2018-U70に掲載されたものです。
光度グラフはComet for Windowsで作成したものです。

---------------------------------------------------------------------

Copyright(C) Seiichi Yoshida (comet@aerith.net). All rights reserved.